Date,TemperatureHighF,TemperatureAvgF,TemperatureLowF,DewpointHighF,DewpointAvgF,DewpointLowF,HumidityHigh,HumidityAvg,HumidityLow,PressureMaxIn,PressureMinIn,WindSpeedMaxMPH,WindSpeedAvgMPH,GustSpeedMaxMPH,PrecipitationSumIn
2013-1-1,46,35,24,27,20,13,86,59,31,30.22,30.12,11,-6,12,0.00
2013-1-2,49,36,23,17,14,11,67,44,24,30.22,30.08,14,0,16,0.00
2013-1-3,37,33,31,30,26,16,92,78,46,30.28,30.12,17,0,19,0.06
2013-1-4,35,31,27,30,27,24,91,84,75,30.33,30.25,7,-3,7,0.09
2013-1-5,31,26,20,27,23,18,93,90,85,30.38,30.28,7,0,8,0.00
2013-1-6,47,31,19,33,25,17,95,79,49,30.39,30.09,7,0,9,0.01
2013-1-7,57,46,36,34,30,28,74,55,38,30.09,29.84,17,5,21,0.00
2013-1-8,58,47,36,33,26,18,66,46,23,30.06,29.85,13,4,14,0.00
2013-1-9,59,46,33,29,23,16,65,41,25,30.25,30.07,17,4,19,0.00
2013-1-10,58,44,29,32,28,21,75,56,35,30.11,29.89,11,2,12,0.00
2013-1-11,52,45,32,32,22,10,66,41,29,29.93,29.83,23,7,28,0.00
2013-1-12,44,34,26,14,10,5,55,38,21,30.06,29.89,23,5,27,0.00
2013-1-13,41,29,15,11,6,4,66,40,22,30.13,29.97,10,-2,11,0.00
2013-1-14,45,33,25,22,12,0,70,43,20,30.05,29.96,21,5,23,0.00
2013-1-15,38,29,20,10,3,-3,59,35,17,30.31,30.05,19,5,21,0.00
2013-1-16,47,31,19,7,3,-3,42,30,18,30.40,30.28,10,2,10,0.00
2013-1-17,57,40,21,24,15,4,52,37,23,30.46,30.31,18,3,21,0.00
2013-1-18,58,43,29,25,20,16,70,43,20,30.35,30.20,9,1,9,0.00
2013-1-19,62,42,26,22,18,14,64,40,19,30.36,30.23,7,1,9,0.00
2013-1-20,64,43,26,18,14,11,54,33,14,30.31,30.15,5,1,6,0.00
2013-1-21,63,46,30,14,12,10,46,28,13,30.29,30.16,11,2,12,0.00
2013-1-22,66,47,32,16,14,11,42,27,12,30.32,30.21,6,1,8,0.00
2013-1-23,70,48,30,22,16,11,46,30,14,30.40,30.26,6,1,8,0.00
2013-1-24,74,53,34,33,24,17,52,34,19,30.35,30.20,13,2,14,0.00
2013-1-25,65,56,47,44,39,33,64,53,36,30.31,30.17,17,2,18,0.00
2013-1-26,68,56,47,50,45,38,85,67,46,30.18,30.02,13,2,14,0.01
2013-1-27,66,54,45,50,44,37,93,70,43,30.12,30.03,16,3,20,0.02
2013-1-28,66,53,37,42,36,31,89,56,30,30.05,29.89,28,7,32,0.00
2013-1-29,46,41,37,35,22,13,76,50,28,30.09,29.92,38,14,43,0.01
2013-1-30,51,39,28,23,14,5,75,40,16,30.29,30.09,17,1,21,0.00
2013-1-31,58,41,26,22,17,11,59,40,22,30.32,30.21,12,1,13,0.00
2013-2-1,63,44,27,21,17,14,62,37,17,30.30,30.18,9,-6,14,0.00
2013-2-2,67,47,29,21,16,12,54,31,13,30.39,30.26,9,1,10,0.00
2013-2-3,64,51,38,33,20,13,51,31,16,30.29,30.03,13,2,15,0.00
2013-2-4,66,53,43,35,31,27,59,44,31,30.13,30.01,12,2,16,0.00
2013-2-5,67,51,35,32,30,26,72,47,23,30.14,29.99,9,2,11,0.00
2013-2-6,68,54,34,34,28,20,67,41,17,30.06,29.95,21,4,25,0.00
2013-2-7,66,52,40,35,26,16,67,40,20,30.18,30.06,10,2,11,0.00
2013-2-8,70,56,44,29,22,8,44,28,13,30.14,29.89,27,8,35,0.00
2013-2-9,62,48,36,24,16,9,47,28,17,30.03,29.81,33,9,45,0.00
2013-2-10,55,41,29,21,15,8,64,37,16,30.08,29.96,21,2,28,0.00
2013-2-11,60,43,26,33,13,6,73,31,16,30.06,29.92,16,0,21,0.00
2013-2-12,52,41,32,34,19,6,81,47,18,30.19,30.04,20,5,22,0.00
2013-2-13,55,40,23,15,10,6,53,32,16,30.23,30.08,12,2,15,0.00
2013-2-14,62,43,25,18,12,5,44,29,15,30.19,30.04,14,-1,16,0.00
2013-2-15,58,46,36,29,21,10,57,38,21,30.37,30.17,10,2,12,0.00
2013-2-16,62,44,27,22,16,8,62,36,15,30.44,30.19,9,1,11,0.00
2013-2-17,69,49,26,14,8,-2,43,22,7,30.19,29.88,17,3,19,0.00
2013-2-18,65,52,36,14,7,-2,32,17,7,30.13,29.94,19,4,26,0.00
2013-2-19,59,47,36,46,26,5,92,51,16,30.08,29.88,15,3,18,0.19
2013-2-20,61,48,36,44,32,19,92,62,21,29.88,29.61,43,10,49,0.01
2013-2-21,51,40,31,27,24,22,72,53,32,30.05,29.87,21,8,25,0.00
2013-2-22,56,43,30,28,24,20,79,50,25,30.11,29.99,20,5,23,0.00
2013-2-23,61,46,30,24,21,15,70,41,20,30.14,29.86,15,3,18,0.00
2013-2-24,63,44,32,26,19,7,61,40,15,29.99,29.70,37,10,41,0.00
2013-2-25,54,40,24,16,12,8,58,34,17,30.15,29.99,16,4,20,0.00
2013-2-26,66,47,28,16,5,-8,43,22,6,30.09,29.87,28,7,32,0.00
2013-2-27,55,44,32,14,3,-3,32,19,10,30.30,30.09,11,3,14,0.00
2013-2-28,58,44,26,16,9,1,49,27,11,30.35,30.22,12,2,14,0.00
2013-3-1,64,47,29,12,8,1,34,21,11,30.38,30.26,11,2,11,0.00
2013-3-2,70,52,32,18,14,8,39,23,12,30.42,30.22,9,1,10,0.00
2013-3-3,82,60,36,17,8,-29,42,18,1,30.23,29.96,22,5,26,0.00
2013-3-4,79,63,46,29,17,-6,27,18,4,30.12,29.84,33,8,40,0.00
2013-3-5,65,54,42,29,25,19,50,33,22,30.32,30.12,31,10,31,0.00
2013-3-6,77,62,52,28,25,23,34,25,15,30.22,30.02,26,7,33,0.00
2013-3-7,78,65,49,29,23,9,39,22,8,30.10,29.96,17,4,20,0.00
2013-3-8,71,61,53,51,36,22,71,40,23,30.04,29.89,24,6,27,0.03
2013-3-9,59,49,40,38,29,20,72,48,23,30.05,29.91,29,11,34,0.00
2013-3-10,58,46,33,31,24,19,78,47,25,30.20,30.05,16,2,21,0.00
2013-3-11,68,51,32,26,19,14,54,31,15,30.24,30.07,16,3,18,0.00
2013-3-12,74,56,36,25,17,13,40,23,10,30.26,30.11,16,3,20,0.00
2013-3-13,76,61,42,26,20,10,46,23,8,30.35,30.19,17,5,19,0.00
2013-3-14,81,61,41,19,12,3,31,17,5,30.33,30.17,7,1,8,0.00
2013-3-15,86,64,43,17,8,-1,27,13,4,30.22,30.00,11,2,16,0.00
2013-3-16,86,68,49,18,9,-13,23,12,2,30.03,29.84,23,5,26,0.00
2013-3-17,80,68,49,19,12,7,22,12,7,29.98,29.84,38,10,38,0.00
2013-3-18,78,65,50,23,15,4,29,15,6,30.10,29.96,21,7,24,0.00
2013-3-19,78,64,48,23,16,9,26,16,9,30.13,29.99,24,5,26,0.00
2013-3-20,72,62,47,34,29,20,51,30,20,30.25,29.96,21,4,21,0.00
2013-3-21,80,65,48,31,24,10,46,24,8,29.96,29.78,29,7,33,0.00
2013-3-22,80,66,50,29,23,15,32,20,12,29.91,29.74,28,7,33,0.00
2013-3-23,75,63,50,27,13,-12,37,17,4,30.04,29.86,40,10,41,0.00
2013-3-24,64,51,37,6,-2,-15,23,12,7,30.18,29.93,19,6,22,0.00
2013-3-25,63,52,40,12,7,0,23,16,10,30.20,29.99,16,5,19,0.00
2013-3-26,72,57,45,19,16,12,29,20,11,30.25,30.04,23,9,26,0.00
2013-3-27,80,63,44,24,20,16,37,21,10,30.14,30.01,17,3,24,0.00
2013-3-28,82,68,50,27,22,17,27,18,12,30.17,30.05,18,3,21,0.00
2013-3-29,84,69,53,24,18,10,27,15,7,30.18,30.05,16,4,36,0.00
2013-3-30,84,68,50,26,17,12,24,15,7,30.17,30.02,20,4,24,0.00
2013-3-31,83,68,50,30,23,18,33,19,11,30.12,29.99,15,3,17,0.00
2013-4-1,86,69,51,26,17,0,33,16,4,30.10,29.92,20,4,22,0.00
2013-4-2,83,67,52,27,15,2,31,15,6,30.02,29.84,28,5,29,0.00
2013-4-3,75,61,47,37,27,6,64,32,12,30.15,29.98,13,3,17,0.00
2013-4-4,81,65,46,33,21,7,49,23,6,30.23,30.09,11,2,14,0.00
2013-4-5,87,72,60,28,14,0,23,12,4,30.12,29.91,18,7,23,0.00
2013-4-6,84,69,54,30,22,15,29,18,8,30.07,29.91,22,5,27,0.00
2013-4-7,85,70,53,28,21,15,29,17,8,30.01,29.82,20,6,25,0.00
2013-4-8,86,71,54,28,21,6,32,16,5,29.86,29.60,28,8,38,0.00
2013-4-9,68,59,50,38,26,16,64,30,16,29.95,29.60,32,11,34,0.01
2013-4-10,68,56,42,31,24,16,57,32,15,30.02,29.91,28,7,30,0.00
2013-4-11,76,58,36,23,16,6,45,22,9,30.03,29.84,16,4,19,0.00
2013-4-12,81,66,50,28,16,10,24,15,8,29.96,29.83,17,2,19,0.00
2013-4-13,84,70,53,29,19,10,31,16,7,29.92,29.79,23,5,28,0.00
2013-4-14,84,70,55,27,22,17,26,16,9,29.92,29.77,28,9,30,0.00
2013-4-15,86,71,54,32,21,10,35,17,6,29.94,29.81,27,8,29,0.00
2013-4-16,88,72,51,30,15,-4,30,14,3,29.97,29.82,32,8,34,0.00
2013-4-17,82,67,52,28,19,3,32,17,6,30.01,29.76,38,12,44,0.00
2013-4-18,67,55,45,24,12,-12,39,22,4,30.20,30.01,24,6,24,0.00
2013-4-19,69,56,41,6,-5,-25,18,9,2,30.31,30.07,21,5,26,0.00
2013-4-20,82,62,38,10,-4,-30,20,9,1,30.07,29.90,26,6,30,0.00
2013-4-21,85,68,47,19,9,1,21,11,4,30.17,30.00,17,4,21,0.00
2013-4-22,90,73,51,14,4,-12,17,8,2,30.10,29.87,20,5,22,0.00
2013-4-23,89,73,55,26,8,-11,26,10,2,30.06,29.86,25,7,31,0.00
2013-4-24,76,62,45,31,27,23,47,29,14,30.21,30.04,25,9,29,0.00
2013-4-25,86,70,59,42,28,5,37,24,5,30.14,29.93,29,10,29,0.00
2013-4-26,85,70,52,23,12,-6,29,13,3,30.19,30.04,16,4,17,0.00
2013-4-27,86,71,53,28,16,2,33,14,5,30.20,30.02,14,2,19,0.00
2013-4-28,87,72,52,38,23,12,37,18,7,30.09,29.91,12,2,17,0.00
2013-4-29,92,75,56,34,10,-24,32,13,1,29.99,29.81,14,4,23,0.00
2013-4-30,94,78,60,17,6,-8,16,7,2,29.93,29.81,22,6,26,0.00
2013-5-1,90,77,60,22,10,-4,20,9,3,30.04,29.87,20,6,22,0.00
2013-5-2,68,60,51,37,25,8,45,28,10,30.41,30.04,26,8,28,0.00
2013-5-3,70,56,42,23,17,10,45,24,10,30.42,30.05,22,7,26,0.00
2013-5-4,85,67,46,24,16,9,34,16,6,30.05,29.89,16,3,20,0.00
2013-5-5,86,74,64,30,22,15,17,14,11,30.12,29.94,24,9,29,0.00
2013-5-6,84,74,66,40,28,21,37,19,10,30.08,29.97,25,8,38,0.00
2013-5-7,84,72,55,33,27,21,30,19,10,30.11,29.94,20,7,26,0.00
2013-5-8,83,72,56,31,24,17,33,18,9,30.11,29.96,19,7,24,0.00
2013-5-9,83,71,53,32,23,17,30,17,11,30.08,29.96,19,4,23,0.00
2013-5-10,80,68,58,46,35,24,60,32,17,30.21,30.02,34,6,37,0.00
2013-5-11,77,64,51,52,42,28,72,47,18,30.30,30.18,28,6,34,0.00
2013-5-12,81,69,54,43,35,29,54,31,17,30.32,30.15,17,4,23,0.00
2013-5-13,84,72,60,38,30,18,39,23,9,30.29,30.12,16,5,23,0.00
2013-5-14,87,74,60,43,36,19,44,28,10,30.18,29.99,14,3,16,0.00
2013-5-15,94,80,61,35,29,23,31,18,9,30.09,29.91,26,8,31,0.00
2013-5-16,94,80,62,32,23,12,26,14,5,30.08,29.91,20,5,24,0.00
2013-5-17,95,80,60,28,21,13,24,12,6,30.05,29.92,17,3,20,0.00
2013-5-18,91,78,63,31,18,-10,23,12,2,30.06,29.90,23,6,27,0.00
2013-5-19,91,77,60,31,19,4,21,12,4,30.04,29.85,25,7,27,0.00
2013-5-20,92,77,58,32,22,10,28,15,5,30.03,29.84,26,7,28,0.00
2013-5-21,89,75,56,32,20,8,30,14,5,30.08,29.92,20,4,23,0.00
2013-5-22,96,79,59,23,12,-8,19,9,2,30.01,29.88,18,3,19,0.00
2013-5-23,98,82,62,51,25,13,46,14,5,30.02,29.87,29,5,34,0.00
2013-5-24,96,81,64,51,42,26,60,31,11,30.11,29.95,20,5,23,0.00
2013-5-25,98,84,71,56,35,7,55,24,4,30.10,29.94,19,6,21,0.00
2013-5-26,97,82,64,28,17,-5,19,10,3,30.12,29.95,22,5,25,0.00
2013-5-27,95,80,60,21,10,-1,17,8,3,30.04,29.86,15,3,18,0.00
2013-5-28,96,80,62,21,8,-10,18,7,2,29.91,29.73,24,6,29,0.00
2013-5-29,92,80,68,33,24,0,21,13,5,29.90,29.76,27,10,34,0.00
2013-5-30,95,81,64,41,32,24,28,18,9,29.99,29.85,21,7,26,0.00
2013-5-31,98,84,67,38,31,24,26,15,8,30.02,29.86,19,6,25,0.00
2013-6-1,98,86,70,38,25,5,27,13,4,30.05,29.93,28,4,28,0.00
2013-6-2,98,82,72,60,51,40,55,35,22,30.09,29.88,38,12,42,0.00
2013-6-3,100,83,67,56,39,2,67,32,3,30.05,29.88,26,6,33,0.00
2013-6-4,101,85,64,44,29,13,35,16,6,30.04,29.91,18,5,24,0.00
2013-6-5,100,86,68,36,25,10,26,13,4,30.04,29.88,21,4,22,0.00
2013-6-6,95,83,66,49,40,13,44,24,9,30.04,29.91,27,8,35,0.00
2013-6-7,96,82,72,59,52,38,60,38,16,30.06,29.87,40,8,40,0.00
2013-6-8,103,85,66,54,40,18,60,28,6,29.99,29.80,20,6,24,0.00
2013-6-9,102,89,73,52,39,22,30,18,10,30.03,29.87,19,4,24,0.00
2013-6-10,104,91,77,52,46,30,39,24,9,30.07,29.94,18,6,24,0.00
2013-6-11,106,91,73,48,38,23,32,17,7,30.07,29.92,15,4,19,0.00
2013-6-12,107,91,72,51,40,29,30,18,7,30.07,29.92,22,4,22,0.00
2013-6-13,101,88,78,60,54,42,51,34,14,30.08,29.94,26,8,27,0.00
2013-6-14,98,83,70,59,55,48,65,42,21,30.07,29.90,26,5,28,0.00
2013-6-15,100,86,70,61,51,42,69,35,14,30.09,29.94,18,3,19,0.00
2013-6-16,103,89,76,52,48,43,42,25,14,30.11,29.96,20,4,22,0.00
2013-6-17,103,88,76,60,51,46,46,29,15,30.08,29.93,32,5,33,0.00
2013-6-18,101,87,73,58,52,32,57,35,10,30.10,29.93,19,7,20,0.00
2013-6-19,105,92,74,60,44,17,53,25,5,30.01,29.85,26,6,28,0.00
2013-6-20,104,90,78,53,45,34,38,23,10,30.05,29.92,28,7,31,0.00
2013-6-21,103,88,72,57,48,27,52,28,11,30.09,29.92,27,5,35,0.00
2013-6-22,104,90,74,53,33,17,33,14,8,30.07,29.88,26,5,33,0.00
2013-6-23,102,90,75,52,36,20,45,18,8,30.04,29.87,20,6,24,0.00
2013-6-24,102,89,71,48,38,32,30,18,11,30.06,29.91,20,4,24,0.00
2013-6-25,102,88,72,47,31,12,29,15,6,30.10,29.97,19,5,22,0.00
2013-6-26,105,88,69,29,16,-2,15,8,2,30.13,30.00,15,4,17,0.00
2013-6-27,109,90,69,40,16,0,18,8,2,30.14,30.00,11,2,14,0.00
2013-6-28,102,90,80,45,39,34,26,17,10,30.21,30.05,16,5,20,0.00
2013-6-29,104,90,73,48,40,30,37,20,8,30.16,29.99,26,4,28,0.00
2013-6-30,100,89,80,61,48,42,50,26,16,30.12,29.94,29,7,36,0.00
2013-7-1,86,76,68,64,60,51,84,59,34,30.25,30.05,26,7,33,0.06
2013-7-2,90,78,65,62,54,46,82,48,23,30.26,30.08,23,5,31,0.00
2013-7-3,94,81,68,58,53,45,69,40,20,30.17,29.96,21,4,26,0.01
2013-7-4,97,83,68,58,54,49,70,41,20,30.04,29.90,13,3,13,0.00
2013-7-5,102,87,70,56,51,39,55,32,12,30.04,29.86,21,4,24,0.00
2013-7-6,102,88,73,59,55,47,60,35,16,30.01,29.86,20,3,23,0.00
2013-7-7,104,92,81,58,52,46,44,28,16,30.03,29.91,18,6,24,0.00
2013-7-8,100,88,74,65,55,48,68,36,18,30.13,30.01,21,6,26,0.03
2013-7-9,102,90,79,60,55,47,48,33,17,30.18,30.01,18,6,23,0.00
2013-7-10,99,88,76,61,57,51,57,37,21,30.18,30.00,18,5,19,0.00
2013-7-11,101,88,75,63,57,50,60,37,20,30.13,29.99,19,4,22,0.00
2013-7-12,101,86,76,66,57,48,66,40,18,30.10,29.94,19,4,26,0.00
2013-7-13,101,87,72,62,55,44,65,38,17,30.12,29.96,15,3,17,0.00
2013-7-14,102,90,75,64,54,46,57,33,18,30.09,29.91,20,5,23,0.19
2013-7-15,87,78,70,62,58,52,65,51,39,30.15,29.96,24,8,24,0.00
2013-7-16,88,77,67,57,53,47,69,46,25,30.19,30.09,16,5,18,0.00
2013-7-17,82,76,69,61,56,53,69,52,40,30.25,30.18,24,8,29,0.00
2013-7-18,76,69,66,68,65,60,93,87,68,30.25,30.13,15,2,21,0.63
2013-7-19,83,74,68,68,65,61,93,76,50,30.18,30.04,15,3,17,0.03
2013-7-20,91,79,68,67,63,58,89,61,37,30.10,29.96,14,4,19,0.00
2013-7-21,96,81,69,64,60,52,77,52,24,30.08,29.93,17,3,22,0.00
2013-7-22,96,80,70,67,63,56,79,58,28,30.09,29.96,20,4,27,0.00
2013-7-23,99,78,69,69,63,56,84,63,25,30.12,29.96,29,4,41,1.41
2013-7-24,94,79,69,68,65,57,90,66,33,30.14,30.00,25,3,28,0.21
2013-7-25,87,77,68,67,65,60,90,68,44,30.22,30.11,25,4,26,0.10
2013-7-26,97,80,71,70,67,60,90,67,32,30.22,30.09,18,4,22,0.12
2013-7-27,86,77,69,70,65,62,92,68,46,30.24,30.05,15,3,17,0.00
2013-7-28,92,76,66,68,66,60,91,71,39,30.12,29.97,30,2,33,0.14
2013-7-29,96,83,70,68,61,53,80,52,25,30.13,30.04,11,3,13,0.00
2013-7-30,100,85,73,63,58,49,67,43,21,30.22,30.12,30,4,40,0.00
2013-7-31,101,87,73,64,58,45,69,41,16,30.24,30.09,16,3,18,0.00
2013-8-1,98,86,73,67,58,47,80,43,19,30.22,30.04,17,4,22,0.02
2013-8-2,98,86,73,66,60,50,76,44,22,30.12,29.99,15,3,18,0.06
2013-8-3,99,87,75,62,58,52,63,40,24,30.14,30.02,11,3,14,0.00
2013-8-4,92,81,76,62,58,54,54,46,33,30.16,30.07,10,2,12,0.00
2013-8-5,100,86,75,61,57,50,60,39,20,30.16,30.00,18,6,22,0.00
2013-8-6,96,83,71,60,57,51,66,44,24,30.14,30.02,17,5,23,0.00
2013-8-7,93,82,70,60,56,52,66,44,26,30.15,30.01,22,6,24,0.00
2013-8-8,97,83,69,60,52,43,62,38,17,30.12,29.98,31,3,34,0.00
2013-8-9,98,85,70,57,47,43,43,28,16,30.12,30.02,16,3,18,0.00
2013-8-10,87,81,77,62,57,50,61,45,32,30.27,30.12,18,6,23,0.00
2013-8-11,93,80,65,63,60,53,88,56,28,30.24,30.07,23,7,24,0.00
2013-8-12,96,86,76,62,58,55,55,40,27,30.17,30.04,15,4,17,0.00
2013-8-13,94,83,74,65,61,52,72,48,29,30.19,30.04,15,5,18,0.01
2013-8-14,98,83,66,65,59,53,87,48,25,30.22,30.03,38,5,51,1.44
2013-8-15,93,79,68,65,62,55,86,59,29,30.23,30.08,17,3,17,0.02
2013-8-16,96,82,70,66,60,52,79,51,24,30.20,30.07,20,2,21,0.00
2013-8-17,100,85,70,65,56,42,76,42,15,30.19,30.03,10,2,13,0.00
2013-8-18,99,86,72,59,53,49,59,34,20,30.16,30.04,12,3,15,0.00
2013-8-19,100,84,71,64,57,49,75,43,19,30.16,30.03,21,3,24,0.02
2013-8-20,94,83,71,60,56,48,68,41,22,30.13,30.01,21,2,23,0.00
2013-8-21,97,84,68,61,52,35,75,38,16,30.14,30.03,17,4,19,0.00
2013-8-22,95,84,71,57,48,36,51,30,14,30.18,30.02,16,5,19,0.00
2013-8-23,94,81,72,58,55,47,58,42,21,30.15,30.00,26,7,36,0.00
2013-8-24,91,81,72,61,58,55,63,46,31,30.15,30.04,20,6,21,0.00
2013-8-25,95,83,70,65,58,50,75,45,23,30.21,30.08,19,6,23,0.00
2013-8-26,94,84,74,59,55,52,54,38,26,30.22,30.07,19,7,26,0.00
2013-8-27,89,79,71,68,60,54,82,54,36,30.17,30.06,25,4,26,0.05
2013-8-28,81,74,70,69,66,63,93,78,56,30.21,30.09,11,3,13,0.02
2013-8-29,80,73,67,68,66,63,92,78,60,30.27,30.17,10,1,12,0.02
2013-8-30,91,78,65,68,64,60,93,66,37,30.22,30.07,10,2,12,0.00
2013-8-31,98,83,69,65,59,50,78,48,24,30.13,29.97,10,2,21,0.00
2013-9-1,100,86,71,63,55,42,68,38,16,30.08,29.97,12,2,15,0.00
2013-9-2,97,85,72,65,56,47,66,39,23,30.15,30.01,20,6,26,0.07
2013-9-3,94,84,73,64,56,44,65,41,22,30.19,30.03,17,4,18,0.00
2013-9-4,94,83,70,56,52,49,56,36,24,30.22,30.09,18,4,21,0.00
2013-9-5,95,85,72,57,50,41,57,31,17,30.23,30.11,18,5,20,0.00
2013-9-6,94,85,74,57,54,50,54,36,23,30.22,30.04,19,5,22,0.00
2013-9-7,95,85,75,57,54,48,51,36,24,30.15,30.00,18,6,22,0.00
2013-9-8,94,85,76,59,53,47,53,35,22,30.08,29.91,17,7,21,0.00
2013-9-9,91,79,72,64,58,52,64,49,32,30.02,29.92,21,8,24,0.00
2013-9-10,78,70,67,68,66,61,95,86,64,30.10,29.99,16,4,17,0.88
2013-9-11,81,73,68,70,67,66,95,83,62,30.13,30.05,16,2,20,0.03
2013-9-12,72,69,66,67,66,62,97,90,74,30.13,30.05,17,3,19,2.01
2013-9-13,74,70,66,68,65,62,94,86,74,30.09,29.99,16,4,17,0.39
2013-9-14,85,75,67,63,60,54,82,61,37,30.05,29.95,14,3,15,0.00
2013-9-15,88,76,64,64,60,57,84,60,38,30.09,29.99,13,3,18,0.00
2013-9-16,86,76,67,65,61,58,78,62,44,30.19,30.07,17,6,20,0.00
2013-9-17,87,77,67,64,62,59,83,62,40,30.15,29.99,19,4,19,0.00
2013-9-18,87,77,68,64,62,60,79,60,43,30.07,29.92,16,4,18,0.00
2013-9-19,88,76,67,66,63,58,84,65,42,30.03,29.91,24,4,35,0.00
2013-9-20,86,75,65,65,60,55,91,64,36,30.12,30.00,18,4,20,0.00
2013-9-21,81,72,63,60,57,52,85,61,40,30.17,30.00,19,5,22,0.00
2013-9-22,88,75,62,57,53,49,77,50,29,30.01,29.80,15,5,18,0.00
2013-9-23,85,74,62,58,46,37,70,40,19,30.06,29.86,17,4,22,0.00
2013-9-24,86,70,56,47,43,38,65,41,19,30.18,30.04,11,1,12,0.00
2013-9-25,92,74,56,53,48,42,68,42,21,30.04,29.84,15,2,15,0.00
2013-9-26,90,78,62,51,46,39,57,35,20,29.99,29.86,15,3,17,0.00
2013-9-27,89,78,66,58,51,38,63,41,20,30.02,29.86,21,7,26,0.00
2013-9-28,78,66,55,46,35,27,52,34,17,30.22,30.02,13,4,16,0.00
2013-9-29,83,64,46,40,35,31,57,36,16,30.26,30.09,12,2,15,0.00
2013-9-30,89,70,52,44,35,24,58,32,11,30.11,29.96,18,3,18,0.00
2013-10-1,89,71,52,40,28,4,48,24,5,30.10,29.98,19,3,19,0.00
2013-10-2,89,71,56,42,36,28,43,28,16,30.10,29.97,15,2,22,0.00
2013-10-3,87,71,55,44,37,27,56,32,12,30.05,29.90,15,3,20,0.00
2013-10-4,86,72,56,49,40,30,64,35,14,30.06,29.94,20,5,27,0.00
2013-10-5,76,63,51,38,25,18,44,24,16,30.24,30.06,13,5,17,0.00
2013-10-6,76,60,43,30,26,22,52,30,14,30.32,30.20,10,1,12,0.00
2013-10-7,80,62,44,36,31,22,59,34,12,30.30,30.12,11,1,13,0.00
2013-10-8,86,67,48,40,35,28,59,34,15,30.12,29.94,12,2,15,0.00
2013-10-9,86,70,52,44,38,34,55,33,19,30.05,29.91,19,3,22,0.00
2013-10-10,85,71,59,47,40,33,56,34,17,30.01,29.88,31,9,37,0.00
2013-10-11,77,63,47,41,38,35,64,41,24,30.09,29.98,20,2,22,0.00
2013-10-12,82,65,46,43,38,32,69,41,17,30.16,30.03,15,2,20,0.00
2013-10-13,83,70,55,55,46,42,67,45,26,30.15,30.04,16,3,17,0.00
2013-10-14,78,70,62,51,49,47,60,47,36,30.14,30.03,17,3,17,0.00
2013-10-15,76,66,59,55,51,48,68,58,46,30.09,29.99,20,6,23,0.00
2013-10-16,76,63,53,51,39,20,77,47,15,30.16,30.05,20,6,25,0.00
2013-10-17,76,59,42,32,26,20,54,31,13,30.17,29.99,12,1,14,0.00
2013-10-18,77,59,42,33,25,16,54,30,11,30.13,30.00,17,2,22,0.00
2013-10-19,72,57,42,34,32,29,66,40,21,30.26,30.08,22,2,25,0.00
2013-10-20,80,59,40,35,26,14,67,34,9,30.10,29.93,16,2,20,0.00
2013-10-21,73,59,41,37,28,15,47,31,21,30.19,30.00,15,3,16,0.00
2013-10-22,75,58,42,41,35,29,72,45,19,30.29,30.15,9,1,11,0.00
2013-10-23,79,60,42,39,35,31,68,42,22,30.23,30.09,13,1,13,0.00
2013-10-24,82,66,50,44,39,33,57,38,25,30.20,30.06,16,4,17,0.00
2013-10-25,80,69,57,46,41,35,62,37,25,30.22,30.08,21,5,23,0.00
2013-10-26,77,63,49,48,41,35,80,49,22,30.26,30.14,14,3,16,0.00
2013-10-27,76,62,49,44,41,38,65,48,30,30.22,29.98,12,1,13,0.00
2013-10-28,81,66,48,44,34,20,74,38,11,30.06,29.96,18,5,25,0.00
2013-10-29,71,66,60,40,32,26,42,29,19,30.11,29.98,14,2,19,0.00
2013-10-30,73,62,51,49,42,30,68,48,35,30.05,29.92,24,6,32,0.00
2013-10-31,70,55,41,31,20,7,50,29,9,30.18,30.02,17,4,20,0.00
2013-11-1,70,54,39,29,22,15,43,29,16,30.24,30.09,17,3,20,0.00
2013-11-2,73,56,38,29,24,21,54,32,15,30.33,30.09,15,-1,19,0.00
2013-11-3,78,62,47,48,32,20,68,34,18,30.09,29.89,22,2,22,0.00
2013-11-4,76,63,50,52,47,42,89,59,34,30.01,29.88,12,2,17,0.00
2013-11-5,69,61,50,48,40,31,67,48,31,30.19,29.91,21,5,22,0.00
2013-11-6,65,52,39,34,21,9,58,33,14,30.38,30.19,14,4,16,0.00
2013-11-7,69,52,32,26,17,8,42,27,13,30.45,30.27,14,4,17,0.00
2013-11-8,74,58,43,44,34,22,71,42,29,30.27,30.08,7,1,9,0.00
2013-11-9,76,58,43,47,37,30,87,51,21,30.22,30.13,8,-3,11,0.00
2013-11-10,78,57,39,38,32,28,68,42,18,30.31,30.18,7,-6,10,0.00
2013-11-11,79,60,43,42,35,30,61,41,26,30.28,30.16,7,1,8,0.00
2013-11-12,64,56,48,44,39,32,70,53,39,30.51,30.27,19,8,24,0.00
2013-11-13,62,53,45,42,39,35,77,61,46,30.51,30.18,18,6,22,0.02
2013-11-14,71,57,43,46,42,37,83,60,37,30.18,29.99,9,1,11,0.00
2013-11-15,73,59,44,53,46,38,83,64,39,30.04,29.85,22,5,26,0.04
2013-11-16,76,63,52,51,46,40,83,58,29,29.97,29.82,27,7,33,0.00
2013-11-17,71,58,47,44,41,37,80,56,32,30.16,29.96,20,3,23,0.00
2013-11-18,73,58,48,41,38,36,66,49,27,30.23,30.11,7,1,9,0.00
2013-11-19,75,58,42,44,39,34,74,52,28,30.13,29.96,13,1,20,0.00
2013-11-20,72,58,46,44,40,35,73,51,34,30.03,29.91,13,2,17,0.00
2013-11-21,75,61,44,45,40,37,75,47,29,30.09,29.98,17,2,18,0.00
2013-11-22,62,46,38,39,33,27,66,59,40,30.32,30.05,33,11,34,0.00
2013-11-23,42,38,33,33,29,26,83,68,59,30.40,30.28,22,5,24,0.01
2013-11-24,37,34,31,29,28,26,86,79,73,30.34,30.22,16,4,19,0.06
2013-11-25,46,38,32,34,31,29,86,78,62,30.33,30.17,10,2,11,0.05
2013-11-26,55,41,28,34,28,24,90,65,35,30.45,30.33,8,-3,9,0.00
2013-11-27,51,40,28,30,26,22,83,59,32,30.42,30.22,14,1,15,0.00
2013-11-28,59,43,27,31,28,23,86,58,31,30.30,30.20,7,0,8,0.00
2013-11-29,65,47,32,36,32,26,82,58,33,30.36,30.23,8,0,11,0.00
2013-11-30,66,50,36,40,36,31,83,62,37,30.32,30.19,5,0,6,0.00
2013-12-1,59,50,44,43,40,37,76,67,53,30.29,30.18,6,0,9,0.00
2013-12-2,67,50,34,37,29,20,84,51,19,30.19,29.97,9,2,11,0.00
2013-12-3,72,54,37,40,25,14,61,36,13,29.97,29.81,20,4,24,0.00
2013-12-4,71,59,48,46,39,31,77,50,28,29.94,29.82,32,8,40,0.00
2013-12-5,59,51,40,47,42,36,92,72,46,30.03,29.87,22,5,25,0.21
2013-12-6,54,42,33,36,30,26,86,65,36,30.19,30.03,12,2,14,0.00
2013-12-7,43,38,33,33,32,29,87,79,68,30.17,30.00,25,10,31,0.00
2013-12-8,57,41,26,35,27,22,93,63,28,30.09,29.99,19,3,22,0.00
2013-12-9,55,41,30,34,22,6,85,51,19,30.36,30.04,23,5,26,0.00
2013-12-10,48,35,21,11,6,2,50,31,16,30.41,30.22,13,-1,17,0.00
2013-12-11,57,40,28,24,15,8,50,37,19,30.44,30.26,16,-1,18,0.00
2013-12-12,49,42,38,38,31,20,88,66,43,30.45,30.18,11,2,15,0.03
2013-12-13,58,45,34,41,35,31,94,71,38,30.18,30.04,24,4,26,0.01
2013-12-14,57,43,31,34,27,22,89,58,28,30.39,30.12,12,1,14,0.00
2013-12-15,58,40,27,27,23,21,81,54,27,30.41,30.28,8,-3,11,0.00
2013-12-16,61,44,29,27,24,20,74,49,25,30.39,30.26,7,-6,8,0.00
2013-12-17,66,46,31,29,26,23,75,48,22,30.40,30.26,5,0,7,0.00
2013-12-18,63,46,30,30,25,22,72,48,25,30.28,30.01,5,0,6,0.00
2013-12-19,71,51,33,29,21,0,70,37,6,30.01,29.81,25,3,29,0.00
2013-12-20,61,50,39,45,35,20,86,59,30,29.87,29.71,19,4,22,0.04
2013-12-21,48,42,36,34,32,30,88,69,51,29.99,29.75,30,12,33,0.01
2013-12-22,54,43,33,32,27,22,81,55,30,30.30,29.99,16,3,17,0.00
2013-12-23,55,39,25,28,22,19,82,54,25,30.47,30.30,8,1,8,0.00
2013-12-24,59,39,24,28,23,17,76,54,29,30.41,30.19,7,-3,9,0.00
2013-12-25,56,42,29,30,26,21,77,55,34,30.41,30.23,15,2,17,0.00
2013-12-26,54,40,29,29,25,21,77,57,33,30.41,30.26,8,-2,9,0.00
2013-12-27,57,39,24,27,23,17,78,55,30,30.39,30.27,12,-3,16,0.00
2013-12-28,58,40,24,31,24,16,75,54,35,30.27,30.01,12,1,12,0.00
2013-12-29,56,43,35,28,25,21,66,50,30,30.25,30.01,21,6,24,0.00
2013-12-30,57,40,24,26,21,16,75,49,27,30.35,30.24,10,1,11,0.00
2013-12-31,60,41,25,24,21,16,69,47,25,30.37,30.18,8,1,11,0.00
2014-1-1,63,43,26,25,21,16,72,45,21,30.27,30.11,9,1,10,0.00
2014-1-2,59,45,33,29,25,18,68,46,28,30.41,30.25,17,4,21,0.00